Location: Jerusalem
(31.7667°N, 35.2333°E)
Time: 18:23:48
(UTC+02:00)

ISS - Visible Passes

Search period start: 23 November 2017 00:00
Search period end: 03 December 2017 00:00
Orbit: 402 x 407 km, 51.6° (Epoch: 24 November)

Date Brightness Start Highest point End Pass type
(mag) Time Alt. Az. Time Alt. Az. Time Alt. Az.
23 Nov -0.8 18:48:25 10° SW 18:48:51 13° SW 18:48:51 13° SW visible
24 Nov -2.8 17:56:30 10° SSW 17:59:14 31° SE 17:59:14 31° SE visible
25 Nov -1.7 17:05:24 10° SSE 17:07:18 15° SE 17:09:13 10° E visible
25 Nov -1.5 18:40:30 10° WSW 18:42:13 24° W 18:42:13 24° W visible
26 Nov -3.8 17:47:54 10° SW 17:51:10 78° NW 17:52:24 35° NE visible
27 Nov -1.2 18:33:28 10° WNW 18:35:10 15° NW 18:35:10 15° NW visible
28 Nov -2.1 17:40:08 10° W 17:42:59 27° NW 17:45:11 14° NNE visible
30 Nov -1.2 17:33:22 10° WNW 17:34:55 13° NNW 17:36:29 10° N visible
